TimeCDT,TemperatureF,Dew PointF,Humidity,Sea Level PressureIn,VisibilityMPH,Wind Direction,Wind SpeedMPH,Gust SpeedMPH,PrecipitationIn,Events,Conditions,WindDirDegrees,DateUTC
12:35 AM,37.2,31.3,79,30.01,10.0,SSE,8.1,-,N/A,,Clear,150,2011-11-05 05:35:00
12:55 AM,36.5,31.5,82,30.00,10.0,SSE,8.1,-,N/A,,Clear,150,2011-11-05 05:55:00
1:15 AM,37.0,32.0,82,30.00,10.0,SSE,10.4,-,N/A,,Clear,160,2011-11-05 06:15:00
1:35 AM,37.2,32.5,83,29.99,10.0,SSE,12.7,-,N/A,,Clear,160,2011-11-05 06:35:00
1:55 AM,38.5,33.8,83,29.98,10.0,SSE,13.8,21.9,N/A,,Clear,150,2011-11-05 06:55:00
2:35 AM,36.9,32.7,85,29.98,10.0,SE,13.8,-,N/A,,Clear,140,2011-11-05 07:35:00
2:55 AM,36.5,32.5,86,29.97,10.0,SE,12.7,-,N/A,,Clear,140,2011-11-05 07:55:00
3:15 AM,36.1,32.4,86,29.96,10.0,SE,12.7,-,N/A,,Clear,140,2011-11-05 08:15:00
3:35 AM,36.0,32.2,86,29.96,10.0,SE,9.2,-,N/A,,Clear,130,2011-11-05 08:35:00
3:55 AM,34.2,31.1,89,29.95,10.0,SE,11.5,-,N/A,,Clear,140,2011-11-05 08:55:00
4:35 AM,34.0,31.3,90,29.94,7.0,SE,12.7,-,N/A,,Clear,140,2011-11-05 09:35:00
4:55 AM,34.2,31.8,91,29.94,7.0,SE,13.8,-,N/A,,Clear,130,2011-11-05 09:55:00
5:15 AM,34.5,32.0,90,29.93,7.0,SE,15.0,-,N/A,,Clear,130,2011-11-05 10:15:00
5:55 AM,34.2,32.0,92,29.93,5.0,SE,11.5,-,N/A,,Clear,130,2011-11-05 10:55:00
6:15 AM,34.0,32.0,92,29.92,4.0,SE,11.5,-,N/A,,Clear,140,2011-11-05 11:15:00
6:35 AM,34.5,32.4,92,29.92,4.0,SSE,13.8,-,N/A,,Clear,150,2011-11-05 11:35:00
7:06 AM,35.6,33.8,93,29.90,4.0,SE,12.7,-,N/A,,Clear,140,2011-11-05 12:06:00
7:15 AM,35.4,32.9,91,29.90,3.0,SE,13.8,-,N/A,,Clear,140,2011-11-05 12:15:00
7:35 AM,35.6,33.3,91,29.89,4.0,SE,16.1,-,N/A,,Clear,140,2011-11-05 12:35:00
8:15 AM,36.0,33.6,91,29.89,2.5,SE,17.3,-,N/A,,Clear,140,2011-11-05 13:15:00
8:35 AM,37.4,35.1,91,29.89,3.0,SE,16.1,-,N/A,,Clear,140,2011-11-05 13:35:00
9:15 AM,39.4,36.7,90,29.87,4.0,SSE,19.6,23.0,N/A,,Clear,150,2011-11-05 14:15:00
9:55 AM,41.4,37.9,88,29.87,5.0,SSE,16.1,21.9,N/A,,Scattered Clouds,150,2011-11-05 14:55:00
10:55 AM,44.6,39.6,82,29.84,10.0,South,19.6,25.3,N/A,,Clear,170,2011-11-05 15:55:00
11:15 AM,46.6,40.1,78,29.84,10.0,South,26.5,32.2,N/A,,Clear,170,2011-11-05 16:15:00
11:35 AM,48.9,39.7,71,29.84,10.0,South,27.6,32.2,N/A,,Clear,180,2011-11-05 16:35:00
12:15 PM,51.3,37.0,58,29.82,10.0,South,27.6,39.1,N/A,,Clear,170,2011-11-05 17:15:00
12:55 PM,55.2,35.8,48,29.79,10.0,South,32.2,38.0,N/A,,Clear,170,2011-11-05 17:55:00
1:15 PM,56.3,34.3,44,29.79,10.0,South,32.2,40.3,N/A,,Clear,180,2011-11-05 18:15:00
1:35 PM,57.0,34.3,42,29.79,10.0,South,32.2,36.8,N/A,,Clear,170,2011-11-05 18:35:00
1:55 PM,57.7,34.2,41,29.78,10.0,South,32.2,36.8,N/A,,Clear,180,2011-11-05 18:55:00
2:15 PM,58.3,34.5,41,29.77,10.0,South,31.1,36.8,N/A,,Clear,170,2011-11-05 19:15:00
2:35 PM,58.3,34.3,41,29.76,10.0,South,26.5,34.5,N/A,,Clear,170,2011-11-05 19:35:00
2:55 PM,59.4,34.3,39,29.75,10.0,SSE,24.2,33.4,N/A,,Clear,160,2011-11-05 19:55:00
3:15 PM,58.3,34.5,41,29.74,10.0,SSE,23.0,33.4,N/A,,Clear,160,2011-11-05 20:15:00
3:35 PM,57.4,34.2,42,29.73,10.0,South,27.6,33.4,N/A,,Clear,170,2011-11-05 20:35:00
3:55 PM,57.6,33.6,41,29.72,10.0,SSE,26.5,36.8,N/A,,Clear,160,2011-11-05 20:55:00
4:35 PM,56.7,35.2,45,29.71,10.0,SSE,26.5,38.0,N/A,,Clear,160,2011-11-05 21:35:00
4:55 PM,55.4,36.3,49,29.71,10.0,SSE,25.3,33.4,N/A,,Clear,160,2011-11-05 21:55:00
5:15 PM,54.9,37.2,51,29.71,10.0,SSE,23.0,29.9,N/A,,Clear,150,2011-11-05 22:15:00
5:35 PM,54.3,37.2,52,29.71,10.0,SSE,20.7,29.9,N/A,,Clear,150,2011-11-05 22:35:00
5:55 PM,53.4,38.1,56,29.70,10.0,SSE,24.2,28.8,N/A,,Clear,150,2011-11-05 22:55:00
6:15 PM,52.5,38.5,59,29.68,10.0,SE,26.5,32.2,N/A,,Clear,140,2011-11-05 23:15:00
6:35 PM,52.0,37.9,59,29.68,10.0,SE,21.9,31.1,N/A,,Clear,140,2011-11-05 23:35:00
6:55 PM,51.3,38.3,61,29.69,10.0,SE,20.7,24.2,N/A,,Clear,140,2011-11-05 23:55:00
7:15 PM,50.5,38.5,63,29.68,10.0,SE,19.6,26.5,N/A,,Clear,140,2011-11-06 00:15:00
7:35 PM,50.4,39.2,66,29.66,10.0,SE,24.2,31.1,N/A,,Clear,140,2011-11-06 00:35:00
7:55 PM,50.2,39.4,66,29.66,10.0,SE,24.2,38.0,N/A,,Clear,140,2011-11-06 00:55:00
8:15 PM,49.8,39.6,68,29.66,10.0,SE,28.8,36.8,N/A,,Clear,140,2011-11-06 01:15:00
8:35 PM,49.3,39.7,70,29.66,10.0,SE,25.3,34.5,N/A,,Clear,140,2011-11-06 01:35:00
8:55 PM,49.1,40.1,71,29.67,10.0,SSE,25.3,33.4,N/A,,Clear,150,2011-11-06 01:55:00
9:15 PM,48.7,40.5,73,29.67,10.0,SSE,25.3,33.4,N/A,,Clear,150,2011-11-06 02:15:00
9:35 PM,48.4,40.5,74,29.68,10.0,SSE,25.3,31.1,N/A,,Clear,150,2011-11-06 02:35:00
9:55 PM,48.4,40.5,74,29.69,10.0,SSE,24.2,33.4,N/A,,Clear,160,2011-11-06 02:55:00
10:15 PM,48.2,40.3,74,29.69,10.0,SSE,25.3,33.4,N/A,,Clear,160,2011-11-06 03:15:00
10:35 PM,47.5,40.1,76,29.69,10.0,SSE,24.2,33.4,N/A,,Clear,160,2011-11-06 03:35:00
10:55 PM,47.1,39.9,76,29.68,10.0,SSE,21.9,28.8,N/A,,Clear,160,2011-11-06 03:55:00
11:15 PM,46.8,39.9,77,29.67,10.0,SSE,20.7,27.6,N/A,,Clear,150,2011-11-06 04:15:00
11:35 PM,46.8,39.9,77,29.66,10.0,SSE,19.6,29.9,N/A,,Clear,150,2011-11-06 04:35:00
11:55 PM,46.8,39.7,77,29.65,10.0,SSE,18.4,25.3,N/A,,Clear,150,2011-11-06 04:55:00